DW8642 Weather Reports


time (UTC)temp
F
wind
direction
speed
knots
gust
knots
rain 1hr
in
rain 24hr
in
rain mn
in
humidity
%
barometer
mb
20260507163009 83 346 3.5 9.6 0.00 0.00 0.00 8 886.1
20260507161502 81 337 2.6 12.2 0.00 0.00 0.00 9 886.1
20260507154600 80 306 6.1 12.2 0.00 0.00 0.00 10 886.1
20260507153056 78 31 5.2 13.0 0.00 0.00 0.00 11 886.1
20260507151553 76 30 8.7 13.0 0.00 0.00 0.00 11 886.1
20260507150051 76 34 7.0 13.0 0.00 0.00 0.00 12 886.1
20260507144547 74 21 7.8 13.9 0.00 0.00 0.00 13 886.1
20260507143048 74 5 5.2 12.2 0.00 0.00 0.00 14 886.1
20260507141548 73 360 5.2 11.3 0.00 0.00 0.00 15 886.1
20260507140043 73 41 4.3 10.4 0.00 0.00 0.00 16 886.1
20260507134540 72 325 5.2 10.4 0.00 0.00 0.00 18 886.1
20260507133052 70 338 4.3 8.7 0.00 0.00 0.00 22 886.1
20260507131545 69 337 4.3 8.7 0.00 0.00 0.00 25 886.1
20260507130042 69 323 3.5 9.6 0.00 0.00 0.00 26 886.1
20260507124533 69 326 7.8 12.2 0.00 0.00 0.00 26 886.1
20260507123033 69 329 6.1 12.2 0.00 0.00 0.00 26 886.1
20260507121532 69 336 7.8 12.2 0.00 0.00 0.00 26 886.1
20260507120033 69 324 5.2 11.3 0.00 0.00 0.00 26 886.1
20260507114537 68 319 6.1 10.4 0.00 0.00 0.00 27 886.1
20260507113029 66 285 2.6 7.0 0.00 0.00 0.00 29 886.1
20260507111534 66 292 2.6 7.8 0.00 0.00 0.00 29 886.1
20260507110029 66 293 3.5 7.8 0.00 0.00 0.00 29 886.1
20260507104529 66 280 1.7 6.1 0.00 0.00 0.00 29 886.1
20260507103027 66 284 2.6 7.0 0.00 0.00 0.00 29 886.1
20260507101528 66 275 2.6 5.2 0.00 0.00 0.00 28 886.1
20260507100027 66 280 2.6 4.3 0.00 0.00 0.00 27 886.1
20260507094525 67 321 1.7 7.0 0.00 0.00 0.00 27 886.1
20260507093026 65 265 3.5 6.1 0.00 0.00 0.00 27 886.1
20260507091530 65 238 2.6 6.1 0.00 0.00 0.00 27 886.1
20260507090024 66 232 2.6 3.5 0.00 0.00 0.00 26 886.1
20260507084519 67 230 1.7 2.6 0.00 0.00 0.00 26 886.1
20260507083019 67 240 2.6 4.3 0.00 0.00 0.00 26 886.1
20260507081517 68 241 1.7 4.3 0.00 0.00 0.00 25 886.1
20260507080022 68 202 2.6 4.3 0.00 0.00 0.00 25 886.1
20260507074516 68 223 1.7 4.3 0.00 0.00 0.00 25 886.1
20260507073014 68 232 3.5 5.2 0.00 0.00 0.00 26 886.1
20260507071511 70 232 0.9 2.6 0.00 0.00 0.00 25 886.1
20260507070012 69 254 0.9 2.6 0.00 0.00 0.00 25 886.1
20260507064508 69 244 0.9 3.5 0.00 0.00 0.00 25 886.1
20260507063008 69 275 1.7 5.2 0.00 0.00 0.00 25 886.1
20260507061507 69 262 1.7 4.3 0.00 0.00 0.00 24 886.1
20260507060006 71 360 0.9 2.6 0.00 0.00 0.00 24 886.1
20260507054515 72 269 0.9 6.1 0.00 0.00 0.00 23 886.1
20260507053006 71 281 2.6 7.0 0.00 0.00 0.00 24 886.1
20260507051505 72 220 2.6 7.0 0.00 0.00 0.00 24 886.1
20260507050005 72 284 2.6 7.8 0.00 0.00 0.00 24 886.1
20260507044503 72 267 4.3 9.6 0.00 0.00 0.00 24 886.1
20260507043009 72 272 7.0 10.4 0.00 0.00 0.00 25 886.1
20260507041503 72 279 6.1 9.6 0.00 0.00 0.00 25 886.1
20260507040002 72 311 4.3 7.8 0.00 0.00 0.00 25 886.1
20260507034502 73 281 6.1 10.4 0.00 0.00 0.00 24 886.1
20260507033001 73 269 3.5 10.4 0.00 0.00 0.00 24 886.1
20260507031600 73 247 5.2 8.7 0.00 0.00 0.00 24 886.1
20260507030100 73 267 4.3 7.8 0.00 0.00 0.00 24 886.1
20260507024608 73 271 3.5 7.8 0.00 0.00 0.00 23 886.1
20260507023059 74 232 1.7 8.7 0.00 0.00 0.00 23 886.1
20260507021606 74 272 4.3 7.8 0.00 0.00 0.00 23 886.1
20260507020113 75 227 3.5 9.6 0.00 0.00 0.00 23 886.1
20260507014605 75 360 1.7 8.7 0.00 0.00 0.00 22 886.1
20260507013059 76 271 1.7 7.0 0.00 0.00 0.00 21 886.1
20260507011556 77 192 2.6 7.8 0.00 0.00 0.00 20 886.1
20260507004604 79 250 4.3 9.6 0.00 0.00 0.00 19 886.1
20260507003055 80 277 3.5 7.0 0.00 0.00 0.00 19 886.1
20260507001555 80 309 1.7 10.4 0.00 0.00 0.00 19 886.1
20260507000053 81 272 4.3 9.6 0.00 0.00 0.00 19 886.1
20260506234554 80 200 3.5 10.4 0.00 0.00 0.00 19 886.1
20260506233108 81 266 4.3 11.3 0.00 0.00 0.00 19 886.1
20260506231556 80 281 5.2 11.3 0.00 0.00 0.00 20 886.1
20260506230053 82 238 5.2 10.4 0.00 0.00 0.00 18 886.1
20260506224554 81 215 4.3 9.6 0.00 0.00 0.00 19 886.1
20260506223053 81 321 1.7 9.6 0.00 0.00 0.00 19 886.1
20260506221549 81 284 2.6 12.2 0.00 0.00 0.00 19 886.1
20260506220048 79 284 0.9 8.7 0.00 0.00 0.00 20 886.1
20260506214550 82 312 5.2 10.4 0.00 0.00 0.00 19 886.1
20260506213103 82 303 4.3 11.3 0.00 0.00 0.00 19 886.1
20260506211547 79 311 2.6 7.8 0.00 0.00 0.00 21 886.1
20260506210045 79 317 3.5 8.7 0.00 0.00 0.00 21 886.1
20260506204543 80 29 3.5 10.4 0.00 0.00 0.00 20 886.1
20260506203043 78 215 6.1 10.4 0.00 0.00 0.00 22 886.1
20260506201543 77 192 3.5 9.6 0.00 0.00 0.00 21 886.1
20260506200043 81 258 6.1 10.4 0.00 0.00 0.00 20 886.1
20260506194540 78 294 3.5 12.2 0.00 0.00 0.00 22 886.1
20260506193039 78 294 7.0 12.2 0.00 0.00 0.00 22 886.1
20260506191540 75 95 2.6 10.4 0.00 0.00 0.00 24 886.1
20260506190035 77 271 7.8 11.3 0.00 0.00 0.00 23 886.1
20260506184546 76 348 2.6 8.7 0.00 0.00 0.00 23 886.1
20260506183050 78 269 6.1 10.4 0.00 0.00 0.00 22 886.1
20260506181551 73 319 1.7 11.3 0.00 0.00 0.00 27 886.1
20260506180035 76 279 7.0 13.0 0.00 0.00 0.00 25 886.1
20260506174530 76 304 4.3 10.4 0.00 0.00 0.00 24 886.1
20260506173026 72 168 2.6 9.6 0.00 0.00 0.00 28 886.1
20260506171525 72 154 3.5 8.7 0.00 0.00 0.00 28 886.1
20260506170023 72 149 3.5 7.8 0.00 0.00 0.00 29 886.1
20260506164531 71 226 1.7 10.4 0.00 0.00 0.00 29 886.1